EW7119 Weather Reports


time (UTC)temp
C
wind
direction
speed
KPH
gust
KPH
rain 1hr
cm
rain 24hr
cm
rain mn
cm
humidity
%
barometer
mb
20260509204606 17 279 9.7 19.3 0.00 0.00 0.00 16 1003.0
20260509203107 17 260 6.4 25.7 0.00 0.00 0.00 17 1003.2
20260509201609 16 313 9.7 22.5 0.00 0.00 0.00 17 1003.4
20260509200105 17 275 6.4 14.5 0.00 0.00 0.00 19 1003.5
20260509194603 15 274 8.0 19.3 0.00 0.00 0.00 20 1003.8
20260509193113 16 305 8.0 16.1 0.00 0.00 0.00 22 1003.9
20260509191621 16 317 8.0 17.7 0.00 0.00 0.00 21 1004.1
20260509190018 16 316 6.4 17.7 0.00 0.00 0.00 22 1004.1
20260509184534 16 273 6.4 17.7 0.00 0.00 0.00 25 1004.0
20260509183058 15 277 8.0 24.1 0.00 0.00 0.00 30 1004.2
20260509181555 15 267 8.0 20.9 0.00 0.00 0.00 26 1004.6
20260509180115 14 275 8.0 16.1 0.00 0.00 0.00 27 1004.4
20260509174605 13 302 6.4 20.9 0.00 0.00 0.00 29 1004.6
20260509173148 13 311 9.7 22.5 0.00 0.00 0.00 29 1004.8
20260509171620 13 290 4.8 14.5 0.00 0.00 0.00 30 1005.0
20260509170120 13 306 3.2 17.7 0.00 0.00 0.00 30 1004.9
20260509164610 13 295 4.8 12.9 0.00 0.00 0.00 30 1004.9
20260509163117 12 344 4.8 16.1 0.00 0.00 0.00 31 1004.9
20260509161608 12 281 4.8 17.7 0.00 0.00 0.00 34 1004.7
20260509160112 11 309 4.8 16.1 0.00 0.00 0.00 32 1004.7
20260509154610 11 298 8.0 19.3 0.00 0.00 0.00 33 1004.8
20260509153112 10 299 4.8 16.1 0.00 0.00 0.00 38 1004.9
20260509151604 10 310 3.2 14.5 0.00 0.00 0.00 38 1005.1
20260509150110 10 315 8.0 17.7 0.00 0.00 0.00 37 1005.1
20260509144620 9 287 3.2 16.1 0.00 0.00 0.00 41 1005.1
20260509143132 8 355 3.2 9.7 0.00 0.00 0.00 44 1005.0
20260509141636 7 317 3.2 6.4 0.00 0.00 0.00 48 1005.1
20260509140123 7 342 1.6 6.4 0.00 0.00 0.00 50 1005.2
20260509134621 7 335 1.6 6.4 0.00 0.00 0.00 51 1005.0
20260509133015 7 340 0.0 6.4 0.00 0.00 0.00 53 1004.9
20260509131622 7 347 0.0 4.8 0.00 0.00 0.00 54 1004.7
20260509130112 6 9 0.0 4.8 0.00 0.00 0.00 59 1004.6
20260509124618 5 28 0.0 1.6 0.00 0.00 0.00 61 1004.5
20260509123023 5 31 0.0 9.7 0.00 0.00 0.00 60 1004.1
20260509121518 5 138 0.0 3.2 0.00 0.00 0.00 61 1004.0
20260509120014 5 138 0.0 0.0 0.00 0.00 0.00 62 1003.6
20260509114502 5 138 0.0 0.0 0.00 0.00 0.00 62 1003.6
20260509113051 5 138 0.0 0.0 0.00 0.00 0.00 63 1003.6
20260509111602 5 138 0.0 0.0 0.00 0.00 0.00 63 1003.7
20260509110111 4 138 0.0 0.0 0.00 0.00 0.00 63 1003.5
20260509104616 4 138 0.0 0.0 0.00 0.00 0.00 65 1003.6
20260509103115 4 138 0.0 0.0 0.00 0.00 0.00 65 1003.6
20260509101629 4 138 0.0 0.0 0.00 0.00 0.00 66 1003.5
20260509100122 3 138 0.0 0.0 0.00 0.00 0.00 67 1003.5
20260509094629 3 138 0.0 0.0 0.00 0.00 0.00 68 1003.3
20260509093051 3 138 0.0 0.0 0.00 0.00 0.00 72 1003.4
20260509091605 3 138 0.0 0.0 0.00 0.00 0.00 71 1003.5
20260509090113 3 138 0.0 0.0 0.00 0.00 0.00 69 1003.7
20260509084625 4 138 0.0 0.0 0.00 0.00 0.00 69 1003.7
20260509083122 4 138 0.0 0.0 0.00 0.00 0.00 69 1003.9
20260509081622 4 138 0.0 0.0 0.00 0.00 0.00 69 1004.1
20260509080116 5 138 0.0 0.0 0.00 0.00 0.00 68 1004.1
20260509074614 4 138 0.0 4.8 0.00 0.00 0.00 69 1004.1
20260509073112 4 213 0.0 0.0 0.00 0.00 0.00 69 1004.5
20260509071604 5 213 0.0 0.0 0.00 0.00 0.00 67 1004.7
20260509070106 5 213 0.0 3.2 0.00 0.00 0.00 67 1004.7
20260509064605 5 213 1.6 4.8 0.00 0.00 0.00 67 1005.0
20260509063103 6 213 0.0 4.8 0.00 0.00 0.00 64 1005.0
20260509061558 6 163 1.6 8.0 0.00 0.00 0.00 60 1005.0
20260509060118 7 160 6.4 16.1 0.00 0.00 0.00 60 1005.1
20260509054558 7 241 1.6 11.3 0.00 0.00 0.00 61 1005.3
20260509053118 7 165 4.8 12.9 0.00 0.00 0.00 58 1005.4
20260509051626 7 176 4.8 16.1 0.00 0.00 0.00 58 1005.4
20260509050045 7 134 6.4 19.3 0.00 0.00 0.00 59 1005.5
20260509044552 7 208 4.8 14.5 0.00 0.00 0.00 59 1005.5
20260509043101 7 159 1.6 11.3 0.00 0.00 0.00 59 1005.7
20260509041606 7 140 4.8 11.3 0.00 0.00 0.00 59 1005.6
20260509040118 7 170 3.2 11.3 0.00 0.00 0.00 60 1005.4
20260509034616 8 157 1.6 8.0 0.00 0.00 0.00 59 1005.4
20260509033135 8 146 1.6 12.9 0.00 0.00 0.00 57 1005.0
20260509031601 9 144 6.4 14.5 0.00 0.00 0.00 54 1004.9
20260509030100 9 202 3.2 6.4 0.00 0.00 0.00 52 1004.7
20260509024606 10 148 3.2 11.3 0.00 0.00 0.00 53 1004.3
20260509023041 10 175 3.2 12.9 0.00 0.00 0.00 49 1004.0
20260509021613 10 138 9.7 22.5 0.00 0.00 0.00 50 1004.0
20260509020120 10 128 14.5 24.1 0.00 0.00 0.00 52 1003.7
20260509014607 10 129 14.5 32.2 0.00 0.00 0.00 53 1003.7
20260509013123 10 106 11.3 19.3 0.00 0.00 0.00 53 1003.8
20260509011606 10 140 9.7 17.7 0.00 0.00 0.00 51 1003.9
20260509004605 11 113 8.0 19.3 0.00 0.00 0.00 50 1003.3
20260509003110 11 134 11.3 25.7 0.00 0.00 0.00 49 1003.3
20260509001552 12 134 8.0 22.5 0.00 0.00 0.00 47 1003.3
20260509000044 13 159 9.7 19.3 0.00 0.00 0.00 45 1003.3
20260508234550 13 105 9.7 19.3 0.00 0.00 0.00 45 1003.0
20260508233104 13 152 9.7 19.3 0.00 0.00 0.00 45 1003.1
20260508231603 13 145 12.9 24.1 0.00 0.00 0.00 43 1003.0
20260508230117 14 101 11.3 20.9 0.00 0.00 0.00 42 1003.2
20260508224621 15 184 6.4 17.7 0.00 0.00 0.00 39 1003.1
20260508223012 15 217 6.4 19.3 0.00 0.00 0.00 37 1003.4
20260508221513 16 156 6.4 14.5 0.00 0.00 0.00 36 1003.5
20260508220027 16 170 8.0 16.1 0.00 0.00 0.00 36 1003.6
20260508214523 16 138 4.8 14.5 0.00 0.00 0.00 34 1003.7
20260508213028 16 217 3.2 11.3 0.00 0.00 0.00 39 1004.0
20260508211550 16 266 1.6 11.3 0.00 0.00 0.00 36 1004.2
20260508210042 16 157 4.8 12.9 0.00 0.00 0.00 36 1004.1